User: anonymous   Login
Location: Maiden
(35.5760°N, 81.2120°W)
Time: 17:13:23
(UTC-05:00)
Language:

Cosmos 2151 - Orbit

View from above orbital plane
View from above orbital plane
View from above satellite
View from above satellite

Ground track
Ground track

The orbit data is extracted from the following two-line orbital elements,

1 21422U 91042A   15027.98918394  .00001196  00000-0  11895-3 0  1292
2 21422 082.5029 355.0235 0013269 327.8078 032.2329 14.90798634278647
Epoch (UTC): 27 January 2015 23:44:25
Eccentricity: 0.0013269
inclination: 82.5029°
perigee height: 586 km
apogee height: 605 km
right ascension of ascending node: 355.0235°
argument of perigee: 327.8078°
revolutions per day: 14.90798634
mean anomaly at epoch: 32.2329°
orbit number at epoch: 27864

The dashed part of the orbit path shows where the satellite is in the earth's shadow,  

DLR